This is the latest recevied weather packets stored in our database for station/object KA8DUX-2. If no packets are shown the sender has not sent any weather packets the latest 1 day(s).
| Time | Temp. | Humidity | Pressure | Rain* | Wind** | Luminosity | Snow |
|---|---|---|---|---|---|---|---|
| 1778008482 | 13.33° C | 42% | 1007.4 hPa | 0 mm | 0.89 m/s, 168° | 465 W/m² | - |
| 1778008178 | 12.78° C | 42% | 1007.4 hPa | 0 mm | 0.89 m/s, 261° | 379 W/m² | - |
| 1778007873 | 12.78° C | 41% | 1007.2 hPa | 0 mm | 0 m/s | 397 W/m² | - |
| 1778007569 | 13.33° C | 40% | 1007.1 hPa | 0 mm | 1.79 m/s, 253° | 337 W/m² | - |
| 1778007267 | 12.78° C | 41% | 1007.1 hPa | 0 mm | 1.34 m/s, 61° | 436 W/m² | - |
| 1778006963 | 12.78° C | 40% | 1007 hPa | 0 mm | 2.24 m/s, 147° | 376 W/m² | - |
| 1778006660 | 12.78° C | 40% | 1007.4 hPa | 0 mm | 0.89 m/s, 274° | 395 W/m² | - |
| 1778006356 | 13.33° C | 41% | 1007.1 hPa | 0 mm | 0.45 m/s, 147° | 363 W/m² | - |
| 1778006053 | 12.78° C | 40% | 1007.1 hPa | 0 mm | 1.34 m/s, 260° | 361 W/m² | - |
| 1778005750 | 13.33° C | 37% | 1006.8 hPa | 0 mm | 1.34 m/s, 250° | 345 W/m² | - |
| 1778005447 | 13.33° C | 40% | 1006.9 hPa | 0 mm | 0.89 m/s, 336° | 387 W/m² | - |
| 1778005143 | 13.33° C | 39% | 1006.5 hPa | 0 mm | 0.89 m/s, 133° | 410 W/m² | - |
| 1778004841 | 13.33° C | 39% | 1006.9 hPa | 0 mm | 0.45 m/s, 239° | 407 W/m² | - |
| 1778004537 | 13.89° C | 38% | 1006.9 hPa | 0 mm | 0 m/s | 362 W/m² | - |
| 1778004234 | 13.89° C | 40% | 1006.9 hPa | 0 mm | 0.89 m/s, 123° | 379 W/m² | - |
| 1778003930 | 13.33° C | 39% | 1007.1 hPa | 0 mm | 0 m/s | 353 W/m² | - |
| 1778003627 | 13.89° C | 36% | 1006.8 hPa | 0 mm | 0.89 m/s, 158° | 327 W/m² | - |
| 1778003323 | 14.44° C | 40% | 1006.3 hPa | 0 mm | 0 m/s | 354 W/m² | - |
| 1778003021 | 13.33° C | 38% | 1006.4 hPa | 0 mm | 1.34 m/s, 119° | 490 W/m² | - |
| 1778002716 | 13.89° C | 37% | 1006.4 hPa | 0 mm | 1.34 m/s, 309° | 415 W/m² | - |
| 1778002413 | 13.89° C | 37% | 1006.7 hPa | 0 mm | 0.89 m/s, 22° | 546 W/m² | - |
| 1778002110 | 13.89° C | 36% | 1006.5 hPa | 0 mm | 2.24 m/s, 250° | 540 W/m² | - |
| 1778001808 | 13.89° C | 37% | 1006.4 hPa | 0 mm | 0.45 m/s, 120° | 530 W/m² | - |
| 1778001507 | 13.89° C | 36% | 1006.4 hPa | 0 mm | 0.89 m/s, 284° | 575 W/m² | - |
| 1778001205 | 12.78° C | 39% | 1006.3 hPa | 0 mm | 0.89 m/s, 88° | 434 W/m² | - |
* Rain latest hour (hover to see other rain measurements)
** Current wind speed in m/s (hover to see current wind gust speed)